Regional Weather Roundup
Issued by NWS Sterling, VA

Home | Current Version | Previous Version | Graphics & Text | Print | Product List | Glossary On
Versions: 1 2 3 4 5 6 7 8 9 10 11 12 13 14 15 16 17 18 19 20 21 22 23 24 25 26 27 28 29 30 31 32 33 34 35 36 37 38 39 40 41 42 43 44 45 46 47 48 49 50
190
ASUS41 KLWX 252011
RWRLWX

REGIONAL WEATHER ROUNDUP
NATIONAL WEATHER SERVICE BALTIMORE MD/WASHINGTON DC
400 PM EDT SAT MAR 25 2017

Note: "FAIR" indicates few or no clouds below 12,000 feet
with no significant weather and/or obstructions to visibility.
 TC=TEMPERATURE CELSIUS

 * =Non NWS site. Station does not report precipitation (e.g. rain,
    snow, etc.), thunder, or fog.

DCZ001-MDZ009-015-VAZ040>042-051-053>054-252100-
WASHINGTON METRO

CITY           SKY/WX    TMP DP  RH WIND       PRES   REMARKS
WASHINGTON NAT CLOUDY    78  52  40 CALM      30.14S
DULLES         CLOUDY    77  50  38 N5        30.14S
ANDREWS AFB    CLOUDY    77  51  39 SE3       30.13F
FT BELVOIR     PTSUNNY   79  50  36 VRB7      30.13S
QUANTICO       MOSUNNY   69  52  54 S10       30.14S
COLLEGE PARK*  MOSUNNY   77  50  38 CALM      30.13S
LEESBURG*      PTSUNNY   79  55  44 CALM      30.15R
MANASSAS*        N/A     80  51  36 CALM      30.13F

$$

MDZ006>007-011-014-252100-
BALTIMORE METRO

CITY           SKY/WX    TMP DP  RH WIND       PRES   REMARKS
BWI AIRPORT    CLOUDY    78  52  40 W7        30.12F
MD SCIENCE CTR   N/A     77  50  38 MISG      30.13S
MARTIN STATE   PTSUNNY   72  55  56 SE10      30.15S
ANNAPOLIS      CLOUDY    60  50  69 SE10      30.15S
FORT MEADE*    PTSUNNY   79  48  34 CALM      30.15F

$$

MDZ012-015-019>023-252100-
MARYLAND EASTERN SHORE

CITY           SKY/WX    TMP DP  RH WIND       PRES   REMARKS
OCEAN CITY     CLOUDY    71  52  50 S7        30.16S
SALISBURY      MOSUNNY   75  52  44 W12       30.16S
BAY BRIDGE AP* CLOUDY    73  54  49 SE8       30.15R
CAMBRIDGE*     SUNNY     75  52  43 S6        30.15S
EASTON*        MOSUNNY   75  50  41 SW3       30.19S

$$

MDZ017>025-252100-
SOUTHERN MARYLAND

CITY           SKY/WX    TMP DP  RH WIND       PRES   REMARKS
PATUXENT RIVER PTSUNNY   67  55  65 E9        30.14F
ST INIGOES     MOSUNNY   78  53  41 SW6       30.14F
LEONARDTOWN*   MOSUNNY   77  50  38 SW8       30.16S

$$

MDZ003>005-252100-
NORTH CENTRAL MARYLAND

CITY           SKY/WX    TMP DP  RH WIND       PRES   REMARKS
FREDERICK*     CLOUDY    79  57  47 SW6       30.16F
HAGERSTOWN APT CLOUDY    75  51  43 W3        30.14S
WESTMINSTER*   CLOUDY    73  54  49 NW3       30.16R

$$

MDZ501>502-252100-
WESTERN MARYLAND

CITY           SKY/WX    TMP DP  RH WIND       PRES   REMARKS
OAKLAND*       PTSUNNY   63  46  55 NW5       30.22S
CUMBERLAND*    MOSUNNY   77  48  36 N5        30.18S

$$

VAZ025>031-252100-
SHENANDOAH VALLEY

CITY           SKY/WX    TMP DP  RH WIND       PRES   REMARKS
WINCHESTER*    CLOUDY    73  50  43 N5        30.15S
FRONT ROYAL*   CLOUDY    75  52  43 N5        30.13S
LURAY*         CLOUDY    77  52  41 CALM      30.13F
NEW MARKET*    CLOUDY    74  49  41 CALM      30.13F
STAUNTON*      CLOUDY    75  50  41 S7        30.16F
WAYNESBORO*    PTSUNNY   75  51  43 SW10      30.15F

$$

WVZ021-048>050-054>055-252100-
EASTERN WEST VIRGINIA PANHANDLE

CITY           SKY/WX    TMP DP  RH WIND       PRES   REMARKS
MARTINSBURG    CLOUDY    76  50  40 W6        30.13S
PETERSBURG*    CLOUDY    76  52  42 N3        30.15F

$$

VAZ036>039-050-252100-
CENTRAL FOOTHILLS

CITY           SKY/WX    TMP DP  RH WIND       PRES   REMARKS
CHARLOTTESVILL MOSUNNY   81  50  33 S10       30.13F
CULPEPER*      CLOUDY    79  53  40 SW6       30.13F
ORANGE*        CLOUDY    79  50  36 SW8       30.14F
GORDONSVILLE*  PTSUNNY   79  52  38 S12G17    30.13F
WARRENTON*     PTSUNNY   80  45  29 SW5       30.13S

$$

VAZ055>057-252100-
NORTH AND CENTRAL PIEDMONT

CITY           SKY/WX    TMP DP  RH WIND       PRES   REMARKS
FREDERICKSBRG* MOSUNNY   79  53  40 SW10      30.13S
STAFFORD*      MOSUNNY   78  50  37 S5        30.17S

$$

NCZ024-NYZ072-PAZ021-071-VAZ022-071-252100-
OTHER REGIONAL OBSERVATIONS

CITY           SKY/WX    TMP DP  RH WIND       PRES   REMARKS
NEW YORK CITY  CLOUDY    54  41  61 VRB6      30.25R
PHILADELPHIA   CLOUDY    75  52  44 N10       30.15R
PITTSBURGH     CLOUDY    72  52  49 N9        30.14F
ROANOKE        CLOUDY    75  49  39 E12       30.18F
RICHMOND       PTSUNNY   78  51  38 SW18      30.16F
RALEIGH        PTSUNNY   74  48  39 SW20      30.22F

$$

ANZ530>537-252100-
MARINE OBSERVATIONS

STATION/POSITION TIME  TEMP    WIND        PRES
                       AIR SEA DIR/SP/G
                 (UTC) (F)     (DEG/KT/KT) (MB)
THOMAS PT LIGHT  2000   65 45  150/ 11/ 11   N/A
BALT KEY BRIDGE  1942   65     120/ 10/ 12 1020.4S
COVE POINT       1942   58     180/ 11/ 13 1021.4F
LEWISETTA        1942   73 49  280/  7/  9 1020.5F
SOLOMONS ISLAND  1942   64 46  100/  5/  8   N/A
PINEY POINT      1942          150/  5/  5   N/A

$$





USA.gov is the U.S. government's official web portal to all federal, state and local government web resources and services.